This is the latest recevied weather packets stored in our database for station/object WX5RP. If no packets are shown the sender has not sent any weather packets the latest 10 day(s).
| Time | Temp. | Humidity | Pressure | Rain* | Wind** | Luminosity | Snow |
|---|---|---|---|---|---|---|---|
| 1777490116 | 14.44° C | 27% | 1021 hPa | 0 mm | - | 966 W/m² | - |
| 1777489516 | 13.89° C | 27% | 1021.2 hPa | 0 mm | - | 958 W/m² | - |
| 1777488916 | 13.89° C | 27% | 1021.5 hPa | 0 mm | - | 950 W/m² | - |
| 1777488316 | 13.89° C | 28% | 1021.5 hPa | 0 mm | - | 930 W/m² | - |
| 1777487716 | 13.89° C | 28% | 1021.6 hPa | 0 mm | - | 926 W/m² | - |
| 1777487117 | 13.33° C | 29% | 1022 hPa | 0 mm | - | 909 W/m² | - |
| 1777486516 | 12.78° C | 29% | 1021.7 hPa | 0 mm | - | 898 W/m² | - |
| 1777485916 | 12.22° C | 36% | 1021.3 hPa | 0 mm | - | 884 W/m² | - |
| 1777485316 | 11.67° C | 43% | 1021.7 hPa | 0 mm | - | 868 W/m² | - |
| 1777484716 | 11.67° C | 44% | 1021.7 hPa | 0 mm | - | 781 W/m² | - |
| 1777484116 | 12.22° C | 44% | 1022 hPa | 0 mm | - | 827 W/m² | - |
| 1777483516 | 11.11° C | 45% | 1022.4 hPa | 0 mm | - | 803 W/m² | - |
| 1777482916 | 10.56° C | 49% | 1022.1 hPa | 0 mm | - | 774 W/m² | - |
| 1777482316 | 10.56° C | 49% | 1021.7 hPa | 0 mm | - | 748 W/m² | - |
| 1777481716 | 10° C | 52% | 1022 hPa | 0 mm | - | 723 W/m² | - |
| 1777481116 | 9.44° C | 54% | 1021.7 hPa | 0 mm | - | 697 W/m² | - |
| 1777480515 | 9.44° C | 53% | 1021.7 hPa | 0 mm | - | 668 W/m² | - |
| 1777479915 | 8.89° C | 55% | 1021.7 hPa | 0 mm | - | 640 W/m² | - |
| 1777479315 | 8.89° C | 57% | 1021.4 hPa | 0 mm | - | 614 W/m² | - |
| 1777478716 | 7.78° C | 58% | 1021.8 hPa | 0 mm | - | 583 W/m² | - |
| 1777478116 | 6.67° C | 60% | 1022.1 hPa | 0 mm | - | 553 W/m² | - |
| 1777477516 | 6.11° C | 60% | 1022.1 hPa | 0 mm | - | 523 W/m² | - |
| 1777476915 | 6.11° C | 60% | 1022.4 hPa | 0 mm | - | 487 W/m² | - |
| 1777476317 | 5° C | 63% | 1022.3 hPa | 0 mm | - | 451 W/m² | - |
| 1777475715 | 4.44° C | 65% | 1022.3 hPa | 0 mm | - | 417 W/m² | - |
* Rain latest hour (hover to see other rain measurements)
** Current wind speed in m/s (hover to see current wind gust speed)